Lake Ray Hubbard Weather Center

Moon Phase Calendar



Lake Ray Hubbard Water Level
Online Cameras

 


      

Current Conditions in Rowlett
6/13/2024 12:18:02 AM

78°F
Feels Like 79
Clear
Humidity
76%
Pressure
29.94"
Wind
4.6 mph (SE)
Dew Point
70°F
UV Index
0/10 (Low)
Visibility
6 mi

Hourly Forecast

Date & Time Thu, Jun 13
12:00 AM
Thu, Jun 13
1:00 AM
Thu, Jun 13
2:00 AM
Thu, Jun 13
3:00 AM
Thu, Jun 13
4:00 AM
Thu, Jun 13
5:00 AM
Thu, Jun 13
6:00 AM
Thu, Jun 13
7:00 AM
Thu, Jun 13
8:00 AM
Thu, Jun 13
9:00 AM
Thu, Jun 13
10:00 AM
Thu, Jun 13
11:00 AM
Thu, Jun 13
12:00 PM
Thu, Jun 13
1:00 PM
Thu, Jun 13
2:00 PM
Thu, Jun 13
3:00 PM
Thu, Jun 13
4:00 PM
Thu, Jun 13
5:00 PM
Thu, Jun 13
6:00 PM
Thu, Jun 13
7:00 PM
Thu, Jun 13
8:00 PM
Thu, Jun 13
9:00 PM
Thu, Jun 13
10:00 PM
Thu, Jun 13
11:00 PM
Fri, Jun 14
12:00 AM
Fri, Jun 14
1:00 AM
Fri, Jun 14
2:00 AM
Fri, Jun 14
3:00 AM
Fri, Jun 14
4:00 AM
Fri, Jun 14
5:00 AM
Fri, Jun 14
6:00 AM
Fri, Jun 14
7:00 AM
Fri, Jun 14
8:00 AM
Fri, Jun 14
9:00 AM
Fri, Jun 14
10:00 AM
Fri, Jun 14
11:00 AM
Fri, Jun 14
12:00 PM
Fri, Jun 14
1:00 PM
Fri, Jun 14
2:00 PM
Fri, Jun 14
3:00 PM
Fri, Jun 14
4:00 PM
Fri, Jun 14
5:00 PM
Fri, Jun 14
6:00 PM
Fri, Jun 14
7:00 PM
Fri, Jun 14
8:00 PM
Fri, Jun 14
9:00 PM
Fri, Jun 14
10:00 PM
Fri, Jun 14
11:00 PM
Condition
Clear

Clear

Clear

Clear

Clear

Clear

Clear

Clear

Clear

Clear

Clear

Clear

Clear

Clear

Clear

Clear

Clear

Clear

Clear

Clear

Clear

Clear

Clear

Clear

Clear

Clear

Clear

Clear

Clear

Clear

Clouds

Clouds

Clouds

Clouds

Clouds

Clouds

Clouds

Clouds

Clear

Clear

Clear

Clear

Clear

Clear

Clear

Clear

Clear

Clear
Temperature 78°F77°F76°F75°F73°F71°F70°F71°F74°F77°F80°F82°F84°F86°F87°F88°F89°F89°F88°F87°F83°F79°F78°F77°F76°F74°F73°F73°F72°F71°F71°F71°F75°F78°F81°F84°F86°F87°F89°F90°F90°F90°F89°F87°F82°F79°F78°F77°F
Feels Like 79°F78°F77°F76°F74°F71°F71°F71°F74°F78°F80°F85°F88°F91°F93°F94°F95°F95°F93°F94°F88°F79°F79°F78°F76°F75°F74°F74°F73°F72°F71°F72°F75°F78°F83°F86°F89°F91°F93°F94°F94°F93°F92°F92°F86°F79°F78°F77°F
Cloudiness 0%0%0%0%0%0%0%0%0%0%0%0%0%0%2%1%1%1%1%0%0%0%0%0%0%0%0%2%4%4%23%35%61%35%23%18%14%12%0%0%0%0%0%0%0%0%0%0%
Visibility 6 mi6 mi6 mi6 mi6 mi6 mi6 mi6 mi6 mi6 mi6 mi6 mi6 mi6 mi6 mi6 mi6 mi6 mi6 mi6 mi6 mi6 mi6 mi6 mi6 mi6 mi6 mi6 mi6 mi6 mi6 mi6 mi6 mi6 mi6 mi6 mi6 mi6 mi6 mi6 mi6 mi6 mi6 mi6 mi6 mi6 mi6 mi6 mi
Precipitation 0%0%0%0%0%0%0%0%0%0%0%0%0%0%0%0%0%0%0%0%0%0%0%0%0%0%0%0%0%0%0%0%0%0%0%0%0%0%0%0%0%0%0%0%0%0%0%0%
Humidity 76%78%79%81%82%84%84%84%79%73%68%65%62%60%58%55%54%54%55%63%71%75%75%75%76%77%78%79%78%77%77%79%74%67%63%58%56%53%51%48%46%45%47%57%65%66%66%66%
Dew Point 70°F70°F69°F68°F67°F65°F65°F65°F67°F67°F68°F69°F70°F70°F71°F70°F71°F70°F70°F73°F72°F70°F69°F68°F67°F67°F66°F66°F65°F64°F63°F64°F66°F66°F67°F67°F68°F68°F69°F68°F67°F67°F67°F70°F69°F66°F65°F65°F
Pressure 29.94"29.94"29.94"29.91"29.88"29.91"29.91"29.94"29.94"29.97"29.97"29.94"29.94"29.94"29.94"29.91"29.91"29.91"29.88"29.88"29.88"29.91"29.91"29.94"29.94"29.91"29.94"29.91"29.91"29.91"29.94"29.94"29.97"30"30"30"29.97"29.97"29.94"29.94"29.91"29.91"29.88"29.88"29.91"29.91"29.91"29.94"
Wind Speed 6.6 mph5.6 mph5.5 mph5.8 mph5.6 mph4.5 mph5 mph5.6 mph5.4 mph6.2 mph6.4 mph6 mph5.7 mph4.6 mph5.5 mph6 mph6.7 mph6.8 mph6.9 mph6.9 mph7.4 mph7.5 mph7.2 mph6.8 mph6.3 mph5.8 mph4.9 mph5 mph5.2 mph6.3 mph5.6 mph5.7 mph4.2 mph3.2 mph4.6 mph5.1 mph5 mph5.2 mph5.7 mph6.2 mph6.6 mph6.7 mph7.4 mph8 mph7.6 mph6.9 mph6 mph6.6 mph
Wind
Direction
125°
SE
129°
SE
135°
SE
146°
SE
145°
SE
137°
SE
127°
SE
139°
SE
147°
SSE
154°
SSE
164°
SSE
170°
S
171°
S
172°
S
157°
SSE
145°
SE
142°
SE
137°
SE
139°
SE
135°
SE
133°
SE
132°
SE
133°
SE
133°
SE
135°
SE
139°
SE
150°
SSE
143°
SE
140°
SE
141°
SE
140°
SE
151°
SSE
163°
SSE
135°
SE
129°
SE
144°
SE
140°
SE
138°
SE
132°
SE
130°
SE
131°
SE
133°
SE
127°
SE
119°
ESE
120°
ESE
126°
SE
129°
SE
125°
SE

Daily Forecast

Date High Low Precip. Humidity
Today
Jun 13

Clear
89 °F
70 °F
0%
60%
Friday
Jun 14

Clouds
90 °F
71 °F
0%
53%
Saturday
Jun 15

Clear
92 °F
71 °F
0%
53%
Sunday
Jun 16

Clouds
89 °F
73 °F
1%
56%
Monday
Jun 17

Rain
88 °F
73 °F
20%
67%
Tuesday
Jun 18

Rain
86 °F
72 °F
20%
59%
Wednesday
Jun 19

Rain
89 °F
72 °F
26%
59%
Thursday
Jun 20

Rain
89 °F
74 °F
38%
55%
Friday
Jun 21

Rain
93 °F
75 °F
100%
50%
Saturday
Jun 22

Rain
93 °F
77 °F
20%
46%
Sunday
Jun 23

Clouds
93 °F
76 °F
0%
50%
Monday
Jun 24

Clear
95 °F
76 °F
0%
47%
Tuesday
Jun 25

Clear
92 °F
77 °F
0%
45%
Wednesday
Jun 26

Clouds
98 °F
78 °F
0%
46%
Thursday
Jun 27

Clear
98 °F
78 °F
0%
44%
Friday
Jun 28

Clear
95 °F
79 °F
0%
44%

Temperature 8-14 Day Outlook



Precipitation 8-14 Day Outlook






About Us
Contact Us
Site Map
Search Site
Advertise With Us
   
RayHubbard.USLakes.info
THE LAKE RAY HUBBARD WEBSITE

Copyright 2024, Lakes Online
Privacy    |    Legal